MELBOURNE AIRPORT, Australia

1:48 PM AEDT on February 26, 2017 (GMT +1100)
MELBOURNE AIRPORT

Weather History for 94866 - August, 2013

Change the Weather History Date:

Wednesday, August 21, 2013

  Actual Average Record
Temperature  
Mean Temperature 46 °F -  
Max Temperature 55 °F 58 °F - ()
Min Temperature 38 °F 42 °F - ()
Degree Days  
Heating Degree Days 18    
Moisture  
Dew Point 39 °F    
Average Humidity 69    
Maximum Humidity 87    
Minimum Humidity 35    
Precipitation  
Precipitation 0.00 in 0.06 in - ()
Sea Level Pressure  
Sea Level Pressure 29.93 in    
Wind  
Wind Speed 11 mph ()    
Max Wind Speed 18 mph    
Max Gust Speed 31 mph    
Visibility 7.8 miles    
Events Rain    
T = Trace of Precipitation, MM = Missing Value Source: Averaged Metar Reports

Daily Weather History Graph

Daily Weather History Graph

Search for Another Location

Airport or City:

Trip Planner

Search our weather history database for the weather conditions in past years. The results will help you decide how hot, cold, wet, or windy it might be!

Date:

Astronomy

Aug. 21, 2013 Rise Set
Actual Time 6:57 AM AEST 5:50 PM AEST
Civil Twilight 6:31 AM AEST 6:17 PM AEST
Nautical Twilight 6:00 AM AEST 6:47 PM AEST
Astronomical Twilight 5:30 AM AEST 7:18 PM AEST
Moon 6:11 PM AEST (8/21) 6:31 AM AEST (8/21)
Length of Visible Light 11h 45m
Length of Day
10h 52m
Full, 100% of the Moon is Illuminated
Aug 21
Full
Aug 28
Last Quarter
Sep 5
New
Sep 13
First Quarter
Sep 19
Full

Hourly Weather History & Observations

Time (AEST) Temp. Windchill Dew Point Humidity Pressure Visibility Wind Dir Wind Speed Gust Speed Precip Events Conditions
12:00 AM 43 °F - 39 °F 81% 30.03 in 19 mi WNW 9.2 mph - -   Partly Cloudy
12:00 AM 42.8 °F 37.5 °F 39.2 °F 87% 30.01 in 6.2 mi WNW 9.2 mph - N/A   Mostly Cloudy
12:30 AM 42.8 °F 38.0 °F 39.2 °F 87% 30.01 in 6.2 mi West 8.1 mph - N/A   Mostly Cloudy
1:00 AM 44 °F - 39 °F 76% 30.03 in - West 11.5 mph - -  
1:00 AM 44.6 °F 38.8 °F 39.2 °F 81% 30.01 in 6.2 mi West 11.5 mph - N/A   Mostly Cloudy
1:30 AM 44.6 °F 38.4 °F 39.2 °F 81% 30.01 in 6.2 mi West 12.7 mph - N/A   Mostly Cloudy
2:00 AM 44 °F - 39 °F 76% 30.02 in - West 12.7 mph - -  
2:00 AM 44.6 °F 38.4 °F 39.2 °F 81% 30.01 in 6.2 mi West 12.7 mph - N/A   Mostly Cloudy
2:30 AM 42.8 °F 37.0 °F 39.2 °F 87% 30.01 in 6.2 mi WNW 10.4 mph - N/A   Mostly Cloudy
3:00 AM 41 °F - 38 °F 85% 30.01 in 19 mi WNW 9.2 mph - -   Partly Cloudy
3:00 AM 41.0 °F 35.2 °F 37.4 °F 87% 30.01 in 6.2 mi WNW 9.2 mph - N/A   Mostly Cloudy
3:30 AM 41.0 °F 36.4 °F 37.4 °F 87% 29.98 in 6.2 mi NW 6.9 mph - N/A   Scattered Clouds
4:00 AM 40 °F - 37 °F 87% 30.00 in - North 8.1 mph - -  
4:00 AM 41.0 °F 35.8 °F 37.4 °F 87% 29.98 in 6.2 mi North 8.1 mph - N/A   Scattered Clouds
4:30 AM 39.2 °F 33.0 °F 35.6 °F 87% 29.98 in 6.2 mi North 9.2 mph - N/A   Partly Cloudy
5:00 AM 41 °F - 36 °F 77% 30.00 in - NNW 9.2 mph - -  
5:00 AM 41.0 °F 35.2 °F 35.6 °F 81% 29.98 in 6.2 mi NNW 9.2 mph - N/A   Scattered Clouds
5:30 AM 39.2 °F 32.5 °F 35.6 °F 87% 29.98 in 6.2 mi North 10.4 mph - N/A   Scattered Clouds
6:00 AM 41 °F - 36 °F 77% 30.00 in 19 mi NNW 10.4 mph - -   Partly Cloudy
6:00 AM 41.0 °F 34.7 °F 35.6 °F 81% 29.98 in 6.2 mi NNW 10.4 mph - N/A   Scattered Clouds
6:30 AM 41.0 °F 34.7 °F 35.6 °F 81% 29.98 in 6.2 mi NNW 10.4 mph - N/A   Scattered Clouds
7:00 AM 40 °F - 36 °F 80% 30.01 in - North 10.4 mph - -  
7:00 AM 39.2 °F 32.5 °F 35.6 °F 87% 29.98 in 6.2 mi North 10.4 mph - N/A   Partly Cloudy
7:30 AM 41.0 °F 33.9 °F 35.6 °F 81% 29.98 in 6.2 mi North 12.7 mph - N/A   Scattered Clouds
8:00 AM 42.8 °F 36.6 °F 37.4 °F 81% 29.98 in 6.2 mi North 11.5 mph - N/A   Partly Cloudy
8:30 AM 46.4 °F 40.7 °F 37.4 °F 71% 30.01 in 6.2 mi North 12.7 mph - N/A   Partly Cloudy
9:00 AM 48 °F - 38 °F 60% 30.01 in 19 mi North 11.5 mph - -   Partly Cloudy
9:00 AM 48.2 °F - 39.2 °F 71% 29.98 in 6.2 mi North 11.5 mph - N/A   Scattered Clouds
9:30 AM 51.8 °F - 37.4 °F 58% 29.98 in 6.2 mi North 10.4 mph - N/A   Mostly Cloudy
10:00 AM 52 °F - 37 °F 46% 29.99 in - NNW 12.7 mph - -  
10:00 AM 51.8 °F - 37.4 °F 58% 29.98 in 6.2 mi NNW 12.7 mph - N/A   Scattered Clouds
10:30 AM 51.8 °F - 37.4 °F 58% 29.98 in 6.2 mi NNW 11.5 mph - N/A   Scattered Clouds
11:00 AM 53 °F - 37 °F 44% 29.99 in - NNW 11.5 mph - -  
11:00 AM 51.8 °F - 37.4 °F 58% 29.98 in 6.2 mi NNW 11.5 mph - N/A   Mostly Cloudy
11:30 AM 53.6 °F - 37.4 °F 54% 29.95 in 6.2 mi NNW 15.0 mph - N/A   Mostly Cloudy
12:00 PM 55 °F - 37 °F 40% 29.97 in 19 mi NNW 16.1 mph - -   Partly Cloudy
12:00 PM 55.4 °F - 37.4 °F 51% 29.95 in 6.2 mi NNW 16.1 mph - N/A   Mostly Cloudy
12:30 PM 53.6 °F - 35.6 °F 51% 29.95 in 6.2 mi NW 15.0 mph - N/A   Mostly Cloudy
1:00 PM 55 °F - 35 °F 35% 29.94 in - NW 15.0 mph - -  
1:00 PM 55.4 °F - 35.6 °F 47% 29.92 in 6.2 mi NW 15.0 mph - N/A   Mostly Cloudy
1:30 PM 53.6 °F - 35.6 °F 51% 29.92 in 6.2 mi NW 16.1 mph - N/A   Mostly Cloudy
2:00 PM 55 °F - 37 °F 39% 29.91 in - NNW 12.7 mph - -  
2:00 PM 55.4 °F - 37.4 °F 51% 29.89 in 6.2 mi NNW 12.7 mph - N/A   Mostly Cloudy
2:30 PM 53.6 °F - 37.4 °F 54% 29.89 in 6.2 mi NNW 16.1 mph - N/A   Mostly Cloudy
3:00 PM 55 °F - 37 °F 38% 29.88 in 19 mi North 16.1 mph - -   Mostly Cloudy
3:00 PM 55.4 °F - 37.4 °F 51% 29.86 in 6.2 mi North 16.1 mph - N/A   Mostly Cloudy
3:30 PM 53.6 °F - 39.2 °F 58% 29.86 in 6.2 mi North 18.4 mph - N/A   Mostly Cloudy
4:00 PM 54 °F - 38 °F 43% 29.86 in - North 12.7 mph - -  
4:00 PM 55.4 °F - 37.4 °F 51% 29.86 in 6.2 mi North 12.7 mph - N/A   Mostly Cloudy
4:30 PM 53.6 °F - 39.2 °F 58% 29.86 in 6.2 mi NNW 16.1 mph - N/A   Mostly Cloudy
5:00 PM 52 °F - 40 °F 54% 29.86 in - North 16.1 mph - -  
5:00 PM 51.8 °F - 41.0 °F 67% 29.86 in 6.2 mi North 16.1 mph - N/A   Mostly Cloudy
5:30 PM 50.0 °F - 42.8 °F 76% 29.86 in 6.2 mi North 17.3 mph - N/A   Mostly Cloudy
6:00 PM 50.0 °F - 44.6 °F 82% 29.83 in 6.2 mi North 16.1 mph - N/A Rain Light Rain Showers
6:30 PM 48.2 °F - 42.8 °F 82% 29.86 in 6.2 mi North 15.0 mph - N/A   Scattered Clouds
7:00 PM 49 °F - 42 °F 71% 29.86 in - North 17.3 mph - -  
7:00 PM 50.0 °F - 42.8 °F 76% 29.86 in 6.2 mi North 17.3 mph - N/A   Light Drizzle
7:30 PM 48.2 °F - 42.8 °F 82% 29.86 in 6.2 mi North 15.0 mph - N/A   Scattered Clouds
8:00 PM 48 °F - 41 °F 68% 29.86 in - North 15.0 mph - -  
8:00 PM 48.2 °F - 41.0 °F 76% 29.83 in 6.2 mi North 15.0 mph - N/A   Scattered Clouds
8:30 PM 48.2 °F - 42.8 °F 82% 29.83 in 6.2 mi North 16.1 mph - N/A   Mostly Cloudy
9:00 PM 49 °F - 41 °F 66% 29.85 in 19 mi North 16.1 mph - -   Partly Cloudy
9:00 PM 50.0 °F - 41.0 °F 71% 29.83 in 6.2 mi North 16.1 mph - N/A   Mostly Cloudy
9:30 PM 50.0 °F - 41.0 °F 71% 29.83 in 6.2 mi North 16.1 mph - N/A   Mostly Cloudy
10:00 PM 50 °F - 41 °F 63% 29.84 in - North 13.8 mph - -  
10:00 PM 50.0 °F - 41.0 °F 71% 29.83 in 6.2 mi North 13.8 mph - N/A   Mostly Cloudy
10:30 PM 50.0 °F - 41.0 °F 71% 29.83 in 6.2 mi NNW 13.8 mph - N/A   Mostly Cloudy
11:00 PM 49 °F - 42 °F 70% 29.83 in - North 15.0 mph - -  
11:00 PM 48.2 °F - 42.8 °F 82% 29.83 in 6.2 mi North 15.0 mph - N/A   Mostly Cloudy
11:35 PM 50.0 °F - 39.2 °F 66% 29.80 in 6.2 mi North 17.3 mph 31.1 mph N/A   Mostly Cloudy